Location: B?dargowo
(53.3916°N, 14.4413°E)
Time: 11:54:26
(UTC+00:00)

Daily predictions for brighter satellites

Satellite Brightness Start Highest point End
(mag) Time Altitude Azimuth Time Altitude Azimuth Time Altitude Azimuth
ATLAS 5 CENTAUR R/B 2.6 16:09:37 10° W 16:13:41 41° NNW 16:18:25 10° NE
ISS -3.2 16:13:44 10° WSW 16:17:03 53° SSE 16:20:23 10° E
Iridium 4 Rocket 4.4 16:13:43 10° NNE 16:18:23 27° ENE 16:22:42 10° SE
CZ-4C R/B 3.3 16:14:13 10° W 16:19:31 38° NNW 16:25:54 10° NE
Okean O Rocket 1.6 16:15:38 10° SSE 16:20:03 74° ENE 16:24:28 10° NNW
ADEOS Rocket 3.6 16:15:05 10° N 16:20:50 55° WNW 16:26:12 10° SW
USA 234 3.4 16:19:10 10° ENE 16:25:42 74° NNW 16:32:14 10° W
CZ-4 R/B 2.4 16:22:38 10° ESE 16:25:51 24° ENE 16:29:03 10° N
ERS-2 4.1 16:24:37 10° ENE 16:26:03 12° E 16:27:30 10° ESE
Cosmos 2278 Rocket 3.5 16:27:00 10° SE 16:31:00 20° E 16:35:02 10° NE
Okean-O 3.5 16:28:07 10° ESE 16:31:54 28° ENE 16:35:39 10° N
Meteor 1-24 Rocket 4.3 16:27:47 10° SSW 16:33:00 56° WNW 16:38:16 10° N
CORIOLIS 4.4 16:29:48 10° SSE 16:35:11 77° WSW 16:40:35 10° NNW
Cosmos 2297 Rocket 4.3 16:33:01 10° NW 16:36:14 15° NNW 16:39:27 10° NNE
NOSS 2-1 (E) 4.0 16:33:54 10° S 16:36:49 28° SE 16:39:26 13° ENE
CZ-2C R/B 3.4 16:31:36 10° SE 16:36:59 52° ENE 16:42:35 10° N
COSMOS 2455 3.1 16:31:29 10° SW 16:37:31 70° NW 16:43:34 10° NE
Cosmos 1340 3.5 16:34:22 10° SSE 16:37:40 30° E 16:40:59 10° NNE
Cosmos 1346 Rocket 4.4 16:35:22 10° ESE 16:37:41 15° E 16:39:37 11° NE
CZ-4B R/B 3.6 16:33:00 10° S 16:38:37 72° WSW 16:44:19 10° NNW
Aureole 2 Rocket 3.3 16:36:39 10° SW 16:39:36 41° WNW 16:42:37 10° NNE
SMAP 3.9 16:38:25 10° S 16:43:00 55° W 16:47:36 10° NNW
Cosmos 2058 Rocket 4.3 16:39:38 10° NNW 16:44:00 48° W 16:48:19 10° SSW
Cosmos 1455 2.7 16:42:13 10° NNW 16:46:01 64° W 16:49:50 10° S
Cosmos 405 3.2 16:43:04 10° N 16:46:30 45° ENE 16:49:54 10° SSE
ARGOS 3.8 16:45:29 10° ESE 16:50:13 33° ENE 16:54:59 10° N
Cosmos 1626 Rocket 3.5 16:47:31 10° S 16:51:54 65° E 16:56:20 10° NNE
Cosmos 1092 Rocket 4.0 16:46:49 10° SSE 16:52:48 56° E 16:58:47 10° NNE
Cosmos 2263 Rocket 3.8 16:49:19 10° W 16:54:13 29° NW 16:59:06 10° NNE
CZ-4C R/B 3.8 16:51:12 10° N 16:54:17 48° WNW 16:57:23 10° SW
CZ-2C R/B 4.1 16:52:20 12° NE 16:55:13 17° E 16:58:42 10° ESE
Cosmos 1898 Rocket 3.6 16:50:12 10° S 16:55:18 55° ESE 17:00:25 10° NNE
Cosmos 1680 Rocket 4.4 16:51:35 10° NNW 16:56:42 54° WSW 17:01:45 10° S
TELKOM 3 4.3 16:55:05 10° WSW 16:57:01 29° S 16:58:27 15° SE
Nadezhda 4 Rocket 4.0 16:55:21 10° S 17:01:35 86° WNW 17:07:47 10° N
CZ-4B R/B 1.5 16:59:37 10° NNE 17:02:52 50° E 17:06:02 10° S
Cosmos 1048 Rocket 4.4 16:58:52 10° NNW 17:03:42 40° NE 17:08:34 10° ESE
Landsat 5 4.3 17:00:12 10° N 17:03:57 47° WNW 17:07:38 10° SW
Cosmos 1328 3.9 17:00:14 10° S 17:04:07 54° E 17:08:01 10° NNE
Meteor 2-15 4.5 16:58:22 10° N 17:04:29 60° ENE 17:10:33 10° SSE
MOS 1 Rocket 3.4 17:00:23 10° NNE 17:04:31 44° E 17:08:40 10° S
CZ-2D R/B 3.2 17:03:02 10° SSE 17:06:53 88° ENE 17:10:44 10° NNW
Meteor 2-8 Rocket 4.4 17:00:47 10° N 17:06:55 82° ENE 17:13:04 10° SSE
Cosmos-2242 3.0 17:03:51 10° N 17:08:06 56° ENE 17:12:20 10° SSE
Meteor 1-11 4.5 17:05:09 10° SSE 17:10:30 45° E 17:15:50 10° NNE
COSMO-SKYMED 1 2.6 17:07:36 10° NNE 17:11:56 62° ESE 17:16:14 10° S
BREEZE-M DEB (TANK) 3.2 17:14:01 10° WSW 17:16:02 30° S 17:17:14 19° SE
Cosmos 1937 Rocket 3.5 17:12:43 10° S 17:17:57 63° ESE 17:23:07 11° NNE
Cosmos 1758 Rocket 3.7 17:14:16 10° S 17:18:37 52° E 17:23:01 10° NNE
Cosmos 2098 Rocket 4.3 17:12:17 10° S 17:19:35 62° E 17:26:29 10° NNE
USA 290 2.5 17:17:18 10° NNW 17:20:29 67° WSW 17:23:39 10° SSE
CSL-04 Debris 4.2 17:18:29 10° SE 17:23:43 54° ENE 17:28:59 10° N
Cosmos 1833 Rocket 2.9 17:18:48 10° NW 17:24:25 72° WSW 17:30:00 10° SSE
SL-08 RB Rocket 4.1 17:21:13 12° SE 17:25:02 37° ENE 17:29:11 10° N
NOSS 2-1 (C) 2.8 17:22:28 10° SW 17:25:46 85° SE 17:27:19 32° NE
Cosmos 2221 3.6 17:23:45 10° N 17:26:48 25° NE 17:26:48 25° NE
NOSS 2-2 (C) 4.3 17:23:58 10° NW 17:28:44 57° NE 17:32:40 23° ESE
H-2A R/B 3.2 17:24:49 10° N 17:29:03 45° WNW 17:33:10 10° SW
H-2A R/B 1.9 17:24:13 10° SSE 17:29:18 77° ENE 17:34:35 10° NNW
NOSS 2-1 (D) 2.9 17:28:24 10° SW 17:31:43 85° NW 17:33:06 35° NE
Helios 1A Rocket 2.8 17:27:43 10° SSE 17:31:50 67° ENE 17:35:58 10° N
SeaSat 1 3.9 17:28:02 10° NNE 17:32:25 33° NW 17:36:48 10° WSW
Cosmos 389 Rocket 3.0 17:29:08 10° N 17:32:02 37° NE 17:32:02 37° NE
CZ-3B R/B 3.4 17:32:25 10° W 17:35:01 36° SSW 17:41:44 10° SE
Cosmos 1602 Rocket 3.9 17:31:07 10° SSW 17:35:28 67° WNW 17:39:54 10° N
Cosmos 44 3.6 17:31:05 10° SW 17:36:00 68° NW 17:39:31 21° NE
Cosmos 2026 Rocket 3.9 17:30:35 10° S 17:36:45 86° E 17:43:05 10° NNE
Cosmos 1417 Rocket 4.4 17:31:14 10° N 17:37:28 71° ENE 17:43:45 10° SSE
Meteor 2-15 Rocket 4.4 17:31:25 10° N 17:37:37 80° ENE 17:43:46 10° SSE
SJ 16-02 3.0 17:35:07 10° WSW 17:39:02 31° NW 17:43:00 10° N
Cosmos 1689 Rocket 3.8 17:41:34 20° S 17:41:34 20° S 17:42:40 10° S
NOSS 3-4 (A) 4.5 17:34:02 10° WNW 17:39:53 36° N 17:43:11 24° NE
NOSS 3-4 (C) 4.5 17:34:09 10° WNW 17:39:59 36° N 17:43:17 24° NE
Cosmos 1553 Rocket 4.0 17:34:13 10° N 17:40:40 83° E 17:47:01 10° SSE
YAOGAN 1 2.6 17:36:35 10° SSE 17:40:55 82° WSW 17:45:16 10° NNW
Aureole 3 Rocket 3.5 17:38:32 10° NNW 17:41:35 46° W 17:45:14 10° S
Cosmos 990 Rocket 4.4 17:37:17 10° SW 17:42:26 62° WNW 17:47:35 10° NNE
SJ-11-01 4.2 17:38:02 10° SSE 17:42:43 89° ENE 17:47:26 10° NNW
COSMOS 2406 4.2 17:38:05 10° NW 17:43:38 49° WSW 17:49:09 10° S
Cosmos 2082 Rocket 2.2 17:38:31 10° NNW 17:44:17 86° WSW 17:50:00 10° SSE
Cosmos 1844 Rocket 3.8 17:39:12 10° WSW 17:44:31 41° NW 17:49:50 10° NNE
Meteor 1-27 4.2 17:41:57 10° NNW 17:47:36 88° WSW 17:53:11 10° S
HJ-1C 3.2 17:47:04 31° SSE 17:48:32 80° ENE 17:51:54 10° NNW
X-37B 3.4 17:48:57 10° SW 17:50:22 12° SSW 17:51:36 10° S
Cosmos 1825 Rocket 3.4 17:46:04 10° S 17:50:27 78° E 17:54:56 10° NNE
deb Kosmos-1763 4.1 17:47:19 10° NNW 17:50:55 74° WSW 17:52:52 25° SSE
NOSS 2-2 (E) 4.2 17:46:55 10° NW 17:52:01 80° NE 17:56:04 26° SE
ISS -3.6 17:50:22 10° W 17:53:43 62° S 17:53:50 61° S
ATLAS 2AS CENTAUR R/B 3.7 17:50:16 10° WNW 17:57:31 39° N 18:00:55 26° NE
MetOp-A 4.3 17:56:25 38° ESE 17:57:54 49° ENE 18:03:04 10° N
Iridium 4 Rocket 4.2 17:53:24 10° N 17:58:45 55° W 18:03:37 10° SSW
Cosmos 2315 Rocket 4.1 17:53:01 10° N 17:59:03 48° ENE 18:01:36 32° SE
Cosmos 2227 Rocket 4.3 17:56:33 10° NNW 17:59:13 13° N 18:01:04 12° NNE
ATLAS 5 CENTAUR R/B 3.3 17:55:31 10° WNW 17:59:29 26° N 18:00:57 23° NNE
SKYMED 2 4.4 17:55:46 10° N 17:59:59 50° WNW 18:04:11 10° SW
ERS-2 2.1 17:58:38 34° N 18:00:05 77° WNW 18:03:43 10° SSW
Cosmos 883 Rocket 4.5 17:54:03 10° N 18:00:12 57° ENE 18:05:20 15° SSE
CZ-4 R/B 2.5 17:56:50 10° S 18:00:41 44° W 18:04:31 10° NNW
CSL-04 Rocket 3.7 17:59:29 10° SSE 18:04:58 84° WSW 18:10:33 10° NNW
S3M 3.9 18:01:01 10° N 18:07:11 89° E 18:13:19 10° S
Okean-O 3.7 18:03:55 10° S 18:08:11 46° W 18:12:29 10° NNW
USA 234 3.3 18:05:52 38° ENE 18:08:31 68° N 18:15:00 10° WNW
IRS-1A Rocket 4.5 18:08:25 45° E 18:09:36 52° ENE 18:15:15 10° N
CZ-4C R/B 3.4 18:03:49 10° NW 18:09:36 37° NNE 18:11:46 31° NE
Ariane Rocket 3.4 18:11:25 44° NE 18:11:25 44° NE 18:15:39 10° N
Cosmos 1346 Rocket 3.1 18:09:39 10° SSW 18:13:34 63° WNW 18:15:11 33° N
Cosmos 1655 Rocket 3.9 18:07:43 10° S 18:13:53 68° E 18:20:05 10° NNE
Cosmos 2278 Rocket 2.1 18:08:42 10° SSW 18:14:23 87° WNW 18:17:11 32° NNE
Cosmos 1953 Rocket 3.4 18:12:36 10° S 18:16:57 86° WNW 18:17:58 52° N
SAR-Lupe-4 4.0 18:17:50 57° NW 18:18:02 58° WNW 18:21:33 10° SSW
USA 281 3.9 18:17:58 34° NE 18:18:15 34° NE 18:24:03 10° NNW
Cosmos 2292 Rocket 3.9 18:17:10 10° S 18:20:40 49° S 18:20:40 49° S
Cosmos 2297 Rocket 4.2 18:19:50 10° NNW 18:22:49 14° NNE 18:23:18 14° NNE
Genesis I 4.2 18:19:46 10° NW 18:22:29 40° NNW 18:22:29 40° NNW
COSMOS 2455 4.4 18:19:19 10° W 18:24:29 28° NNW 18:27:32 19° NNE
Cosmos 44 Rocket 4.0 18:19:47 10° SSW 18:23:19 41° SSE 18:23:19 41° SSE
NOSS 2-1 (E) 4.2 18:23:54 10° WSW 18:26:46 39° NW 18:26:46 39° NW
Cosmos 1842 Rocket 4.1 18:24:00 10° N 18:27:17 49° N 18:27:17 49° N
Meteor 2-2 Rocket 4.3 18:22:47 10° NNW 18:28:47 87° WSW 18:34:20 12° S
Cosmos 1869 4.0 18:25:29 10° NNW 18:29:16 51° W 18:30:11 41° SW
ARGOS 3.9 18:25:04 10° S 18:30:18 52° W 18:35:36 10° NNW
NOSS 2-2 (D) 4.4 18:26:22 10° NW 18:31:29 77° SW 18:33:29 46° SSE
CZ-4B R/B 4.3 18:32:37 10° NNW 18:34:44 16° WNW 18:36:49 10° W
CZ-2C R/B 2.6 18:33:46 34° NNE 18:36:22 82° ESE 18:41:59 10° SSW
Cosmos 372 Rocket 4.4 18:32:49 10° SW 18:38:00 62° WNW 18:39:58 37° N
Cosmos 2263 Rocket 4.4 18:37:10 10° NW 18:40:07 14° NNW 18:42:20 12° NNE
Cosmos 494 Rocket 4.4 18:35:50 10° NNW 18:40:55 60° WSW 18:42:29 41° SSW
Cosmos 2150 Rocket 4.3 18:41:56 10° SSW 18:45:58 56° SSW 18:45:58 56° SSW
MOS 1 4.2 18:51:16 86° N 18:51:16 86° N 18:56:55 10° NNW
Resurs 01 Rocket 4.3 19:00:28 11° N 19:00:28 11° N 19:00:35 10° N
Cosmos 909 Rocket 4.1 18:53:15 10° NW 18:59:41 87° NE 19:00:09 79° SE
Cosmos 2221 4.1 19:01:02 10° NNW 19:03:42 32° NW 19:03:42 32° NW
Cosmos 2266 Rocket 4.4 19:10:09 10° SSW 19:16:16 59° WNW 19:22:19 10° N
NOSS 3-4 (A) 4.2 19:25:26 10° NW 19:30:38 51° N 19:30:38 51° N
NOSS 3-4 (C) 4.2 19:25:33 10° NW 19:30:44 51° N 19:30:44 51° N
ATLAS 5 CENTAUR R/B 4.0 19:40:37 10° NW 19:42:29 21° NNW 19:42:29 21° NNW
Cosmos 2227 Rocket 4.4 19:41:16 10° NNW 19:42:53 16° N 19:42:53 16° N
ATLAS 2AS CENTAUR R/B 3.5 19:42:23 10° NW 19:48:21 48° NNW 19:48:21 48° NNW
USA 234 3.8 19:53:12 53° WNW 19:53:12 53° WNW 19:58:05 10° WNW
CZ-4C R/B 3.6 19:52:33 10° NW 19:56:58 44° NNW 19:56:58 44° NNW
Cosmos 2278 Rocket 4.0 19:54:32 10° W 19:59:05 26° NW 19:59:05 26° NW
USA 281 4.2 20:04:50 41° NW 20:04:50 41° NW 20:08:56 10° NNW
